Location: Brest
(52.1000°N, 23.7000°E)
Time: 03:15:15
(UTC+02:00)

Envisat - Visible Passes

Search period start: 12 December 2018 00:00
Search period end: 22 December 2018 00:00
Orbit: 764 x 766 km, 98.2° (Epoch: 11 December)

Date Brightness Start Highest point End Pass type
(mag) Time Alt. Az. Time Alt. Az. Time Alt. Az.
12 Dec 4.1 17:34:28 10° ESE 17:38:14 21° ENE 17:42:00 10° N visible
12 Dec 3.1 19:11:40 10° S 19:16:45 76° WSW 19:21:52 10° NNW visible
12 Dec 5.9 20:54:29 10° WSW 20:56:40 13° W 20:58:52 10° WNW visible
13 Dec 5.4 07:15:14 10° NE 07:19:28 26° E 07:23:39 10° SSE visible
13 Dec 4.7 16:59:58 10° ENE 17:02:01 12° NE 17:04:03 10° NNE visible
13 Dec 3.0 18:35:04 10° SSE 18:40:02 58° ENE 18:45:02 10° N visible
13 Dec 5.0 20:15:18 10° SW 20:19:26 25° W 20:23:35 10° NW visible
14 Dec 6.0 06:39:51 10° NE 06:42:14 13° E 06:44:35 10° ESE visible
14 Dec 3.7 17:59:05 10° ESE 18:03:31 31° ENE 18:07:58 10° N visible
14 Dec 3.9 19:37:30 10° S 19:42:23 47° W 19:47:19 10° NNW visible
15 Dec 4.6 07:40:26 10° NNE 07:45:14 40° E 07:50:00 10° SSE visible
15 Dec 4.3 17:23:47 10° E 17:27:10 18° NE 17:30:33 10° NNE visible
15 Dec 2.9 19:00:27 10° SSE 19:05:32 90° ENE 19:10:40 10° NNW visible
15 Dec 5.7 20:42:18 10° WSW 20:45:18 16° W 20:48:19 10° NW visible
16 Dec 5.7 07:04:18 10° NE 07:08:09 21° E 07:11:58 10° SE visible
16 Dec 4.8 16:50:03 10° ENE 16:51:00 10° NE 16:51:57 10° NE visible
16 Dec 3.1 18:24:02 10° SE 18:28:53 48° ENE 18:33:46 10° N visible
16 Dec 4.7 20:03:42 10° SSW 20:08:07 30° W 20:12:35 10° NNW visible
17 Dec 6.3 06:29:51 10° ENE 06:30:50 10° E 06:31:49 10° E visible
17 Dec 3.9 17:48:14 10° ESE 17:52:25 27° ENE 17:56:37 10° N visible
17 Dec 3.5 19:26:09 10° S 19:31:08 57° W 19:36:11 10° NNW visible
18 Dec 4.9 07:29:21 10° NNE 07:33:57 33° E 07:38:31 10° SSE visible
18 Dec 4.5 17:13:12 10° E 17:16:07 16° NE 17:19:03 10° NNE visible
18 Dec 2.8 18:49:18 10° SSE 18:54:21 75° ENE 18:59:27 10° NNW visible
18 Dec 5.4 20:30:24 10° SW 20:33:57 19° W 20:37:32 10° NW visible
19 Dec 5.8 06:53:26 10° NE 06:56:48 17° E 07:00:09 10° SE visible
19 Dec 3.4 18:13:02 10° SE 18:17:44 40° ENE 18:22:29 10° N visible
19 Dec 4.4 19:52:10 10° SSW 19:56:50 36° W 20:01:32 10° NNW visible
20 Dec 4.1 17:37:27 10° ESE 17:41:20 23° ENE 17:45:14 10° N visible
20 Dec 3.2 19:14:51 10° S 19:19:55 70° WSW 19:25:01 10° NNW visible
20 Dec 6.0 20:58:11 10° WSW 20:59:54 12° W 21:01:37 10° WNW visible
21 Dec 5.3 07:18:19 10° NE 07:22:39 27° E 07:26:59 10° SSE visible
21 Dec 4.6 17:02:45 10° ENE 17:05:06 13° NE 17:07:25 10° NNE visible
21 Dec 2.9 18:38:10 10° SSE 18:43:10 62° ENE 18:48:13 10° N visible
21 Dec 5.2 20:18:38 10° SW 20:22:37 23° W 20:26:38 10° NW visible
